Waarnemingen

Advertentie
Mijn weer
UFS Deutsche Bucht, Duitsland (10007): temperatuur & dauwpunt: 15.01.2017 11:00:00 - 21.01.2017 11:00:00 (CET)UFS Deutsche Bucht, Duitsland (10007): windsnelheid & windstoten: 15.01.2017 11:00:00 - 21.01.2017 11:00:00 (CET)UFS Deutsche Bucht, Duitsland (10007): windrichting: 15.01.2017 11:00:00 - 21.01.2017 11:00:00 (CET)UFS Deutsche Bucht, Duitsland (10007): luchtdruk: 15.01.2017 11:00:00 - 21.01.2017 11:00:00 (CET)UFS Deutsche Bucht, Duitsland (10007): zicht: 15.01.2017 11:00:00 - 21.01.2017 11:00:00 (CET)UFS Deutsche Bucht, Duitsland (10007): Zonneschijnduur: 15.01.2017 11:00:00 - 21.01.2017 11:00:00 (CET)
Datum & Tijd tt [°C] td [°C] ff [km/u] ff [kn] fx [km/u] fx [kn] dd ppp [hPa] vv [km] sd [min]
21.01.2017 11:00:00 5,9 4,6 11 6 - - W 1033,1 10 0
21.01.2017 10:00:00 6,0 4,4 11 6 - - W 1033,2 10 0
21.01.2017 09:00:00 5,9 4,3 11 6 - - W 1032,9 10 0
21.01.2017 08:00:00 6,1 4,2 11 6 - - W 1032,9 10 0
21.01.2017 07:00:00 6,0 4,3 11 6 - - W 1032,7 10 0
21.01.2017 06:00:00 6,1 4,2 11 6 - - WZW 1032,9 10 0
21.01.2017 05:00:00 6,2 4,5 11 6 - - WZW 1033,1 10 0
21.01.2017 04:00:00 6,2 4,3 7 4 - - WZW 1033,5 10 0
21.01.2017 03:00:00 6,1 4,4 7 4 - - WZW 1033,8 10 0
21.01.2017 02:00:00 6,1 4,3 7 4 - - WZW 1034,0 10 0
21.01.2017 01:00:00 5,9 4,5 11 6 - - WZW 1034,3 10 0
21.01.2017 00:00:00 5,8 4,4 7 4 - - W 1034,8 10 0
20.01.2017 23:00:00 5,7 4,0 7 4 - - WZW 1034,8 10 0
20.01.2017 22:00:00 5,7 3,8 7 4 - - WZW 1034,8 10 0
20.01.2017 21:00:00 5,8 3,6 0 0 - - NNW 1034,8 10 0
20.01.2017 20:00:00 5,8 3,6 11 6 - - NNW 1034,9 10 0
20.01.2017 19:00:00 5,9 3,8 14 8 - - NNW 1034,8 10 0
20.01.2017 18:00:00 5,9 3,4 18 10 - - NW 1034,9 10 0
20.01.2017 17:00:00 6,4 3,7 18 10 - - NW 1034,8 10 0
20.01.2017 16:00:00 6,4 3,5 18 10 - - WNW 1034,7 10 0
20.01.2017 15:00:00 6,3 3,9 14 8 - - WNW 1035,0 10 0
20.01.2017 14:00:00 6,2 3,8 14 8 - - W 1035,3 10 0
20.01.2017 13:00:00 6,2 3,9 14 8 - - W 1035,8 10 0
20.01.2017 12:00:00 6,3 3,9 14 8 - - W 1036,2 10 0
20.01.2017 11:00:00 6,2 3,8 14 8 - - WNW 1036,3 10 0
20.01.2017 10:00:00 - - - - - - - - - -
20.01.2017 09:00:00 6,1 4,3 18 10 - - W 1035,9 10 0
20.01.2017 08:00:00 5,7 5,7 11 6 - - W 1035,8 10 0
20.01.2017 07:00:00 5,7 5,7 18 10 - - WZW 1035,7 4,1 0
20.01.2017 06:00:00 5,6 5,6 14 8 - - WZW 1035,7 2,5 0
20.01.2017 05:00:00 5,5 5,5 14 8 - - ZW 1036,2 2,4 0
20.01.2017 04:00:00 5,7 5,7 14 8 - - WZW 1036,3 5 0
20.01.2017 03:00:00 5,7 5,7 11 6 - - W 1036,4 8 0
20.01.2017 02:00:00 5,7 5,7 11 6 - - W 1036,7 6 0
20.01.2017 01:00:00 5,7 5,6 22 12 - - W 1036,9 3,3 0
20.01.2017 00:00:00 5,4 5,0 22 12 - - WZW 1037,2 5 0
19.01.2017 23:00:00 5,5 4,8 22 12 - - WZW 1037,2 7 0
19.01.2017 22:00:00 5,7 5,0 22 12 - - ZW 1037,2 9 0
19.01.2017 21:00:00 5,6 4,7 25 14 - - WZW 1037,2 10 0
19.01.2017 20:00:00 5,6 4,6 22 12 - - WZW 1036,9 10 0
19.01.2017 19:00:00 5,7 4,4 22 12 - - W 1036,8 10 0
19.01.2017 18:00:00 5,6 4,5 18 10 - - ZW 1036,8 10 0
19.01.2017 17:00:00 5,8 4,1 18 10 - - WZW 1036,7 10 6
19.01.2017 16:00:00 5,8 3,8 18 10 - - W 1036,7 10 42
19.01.2017 15:00:00 5,7 3,7 22 12 - - WZW 1036,8 10 24
19.01.2017 14:00:00 5,5 4,4 22 12 - - WZW 1037,2 10 0
19.01.2017 13:00:00 5,2 4,0 22 12 - - WZW 1037,6 9 12
19.01.2017 12:00:00 5,1 4,0 25 14 - - WZW 1038,0 8 0
19.01.2017 11:00:00 4,9 3,8 25 14 - - WZW 1038,1 7 0
19.01.2017 10:00:00 4,9 3,8 25 14 - - W 1038,1 8 0
19.01.2017 09:00:00 4,7 3,6 29 16 - - WZW 1037,7 9 0
19.01.2017 08:00:00 4,1 3,0 29 16 - - WZW 1037,3 10 0
19.01.2017 07:00:00 4,2 3,0 29 16 - - ZW 1037,1 10 0
19.01.2017 06:00:00 3,7 2,3 29 16 - - ZW 1037,1 10 0
19.01.2017 05:00:00 3,7 3,0 29 16 - - ZW 1037,7 7 0
19.01.2017 04:00:00 3,3 2,3 25 14 - - ZW 1037,8 7 0
19.01.2017 03:00:00 3,2 2,1 29 16 - - ZW 1037,8 8 0
19.01.2017 02:00:00 3,7 0,6 29 16 - - ZW 1038,0 10 0
19.01.2017 01:00:00 3,5 0,6 29 16 - - ZW 1038,0 10 0
19.01.2017 00:00:00 3,1 0,7 29 16 - - ZW 1038,1 10 0
18.01.2017 23:00:00 2,9 1,5 29 16 - - ZZW 1038,2 9 0
18.01.2017 22:00:00 3,1 1,8 29 16 - - ZW 1038,2 9 0
18.01.2017 21:00:00 2,8 1,3 29 16 - - ZW 1038,5 10 0
18.01.2017 20:00:00 2,7 0,7 29 16 - - ZW 1038,6 10 0
18.01.2017 19:00:00 3,0 1,0 29 16 - - ZW 1038,5 10 0
18.01.2017 18:00:00 3,3 0,8 32 18 - - ZW 1038,5 10 0
18.01.2017 17:00:00 3,1 -0,1 29 16 - - ZW 1038,6 10 0
18.01.2017 16:00:00 2,9 0,3 29 16 - - ZW 1038,7 10 0
18.01.2017 15:00:00 2,5 0,0 29 16 - - ZW 1038,7 10 0
18.01.2017 14:00:00 2,1 0,7 32 18 - - ZZW 1038,7 10 0
18.01.2017 13:00:00 1,8 0,2 29 16 - - ZZW 1039,4 10 0
18.01.2017 12:00:00 1,1 0,0 32 18 - - ZZW 1039,6 9 0
18.01.2017 11:00:00 1,7 0,5 29 16 - - ZZW 1040,1 9 0
18.01.2017 10:00:00 2,1 -0,7 32 18 - - ZZW 1039,5 10 0
18.01.2017 09:00:00 2,3 0,5 32 18 - - ZW 1038,7 10 0
18.01.2017 08:00:00 2,6 -0,3 32 18 - - ZW 1038,3 10 0
18.01.2017 07:00:00 2,4 0,0 32 18 - - ZW 1038,5 10 0
18.01.2017 06:00:00 2,5 -0,6 32 18 - - ZZW 1038,5 10 0
18.01.2017 05:00:00 2,7 -3,4 29 16 - - ZZW 1038,8 10 0
18.01.2017 04:00:00 2,4 -1,0 29 16 - - ZW 1038,7 10 0
18.01.2017 03:00:00 2,3 -1,1 29 16 - - ZW 1039,1 10 0
18.01.2017 02:00:00 2,3 -0,9 29 16 - - ZW 1039,2 10 0
18.01.2017 01:00:00 2,2 -0,8 29 16 - - ZZW 1039,3 10 0
18.01.2017 00:00:00 2,7 -3,5 25 14 - - ZW 1039,2 10 0
17.01.2017 23:00:00 3,2 -2,5 22 12 - - ZW 1039,3 10 0
17.01.2017 22:00:00 3,2 -4,9 22 12 - - ZW 1039,2 10 0
17.01.2017 21:00:00 3,5 -4,1 22 12 - - ZW 1039,0 10 0
17.01.2017 20:00:00 3,4 -5,0 18 10 - - WZW 1039,1 10 0
17.01.2017 19:00:00 3,3 -5,8 18 10 - - WZW 1038,5 10 0
17.01.2017 18:00:00 3,3 -4,4 22 12 - - WZW 1038,1 10 0
17.01.2017 17:00:00 3,4 -4,8 18 10 - - WZW 1038,2 10 0
17.01.2017 16:00:00 3,2 -3,2 14 8 - - WZW 1038,1 10 0
17.01.2017 15:00:00 3,2 -2,3 14 8 - - WZW 1037,8 10 0
17.01.2017 14:00:00 3,3 -1,8 11 6 - - WZW 1038,0 10 36
17.01.2017 13:00:00 3,3 -3,8 11 6 - - WZW 1038,3 - 24
17.01.2017 12:00:00 3,2 -3,9 11 6 - - ZW 1038,2 10 18
17.01.2017 11:00:00 3,2 -3,8 11 6 - - ZW 1038,0 10 12
17.01.2017 10:00:00 3,2 -3,5 4 2 - - ZZW 1037,5 10 12
17.01.2017 09:00:00 3,4 -4,8 4 2 - - OZO 1037,2 10 6
17.01.2017 08:00:00 2,9 -4,8 0 0 - - N 1036,6 10 0
17.01.2017 07:00:00 2,9 -4,8 4 2 - - N 1036,1 10 0
17.01.2017 06:00:00 2,8 -4,2 4 2 - - N 1035,4 10 0
17.01.2017 05:00:00 2,7 -4,0 4 2 - - NNO 1035,4 10 0
17.01.2017 04:00:00 2,6 -4,2 4 2 - - N 1035,2 10 0
17.01.2017 03:00:00 2,7 -3,6 7 4 - - NNO 1034,8 10 0
17.01.2017 02:00:00 2,7 -4,1 7 4 - - NNO 1034,4 10 0
17.01.2017 01:00:00 2,6 -3,6 7 4 - - NNO 1034,5 10 0
17.01.2017 00:00:00 2,8 -3,2 11 6 - - NO 1034,1 10 0
16.01.2017 23:00:00 2,7 -3,5 18 10 - - NO 1033,8 10 0
16.01.2017 22:00:00 2,8 -5,1 18 10 - - ONO 1033,5 10 0
16.01.2017 21:00:00 2,7 -4,2 18 10 - - ONO 1032,8 10 0
16.01.2017 20:00:00 2,5 -5,3 22 12 - - ONO 1032,1 10 0
16.01.2017 19:00:00 2,8 -4,8 22 12 - - ONO 1031,4 10 0
16.01.2017 18:00:00 2,6 -4,6 18 10 - - NO 1030,9 10 0
16.01.2017 17:00:00 2,6 -4,6 18 10 - - NO 1030,6 10 36
16.01.2017 16:00:00 2,5 -3,4 18 10 - - NO 1029,9 10 60
16.01.2017 15:00:00 2,4 -3,7 14 8 - - NNO 1029,5 9 60
16.01.2017 14:00:00 2,4 -3,8 14 8 - - NNO 1029,1 - 60
16.01.2017 13:00:00 2,1 -4,4 14 8 - - NO 1029,0 0,7 60
16.01.2017 12:00:00 2,0 -4,0 14 8 - - NO 1028,9 10 60
16.01.2017 11:00:00 1,9 -3,7 14 8 - - ONO 1028,8 10 60
16.01.2017 10:00:00 1,8 -3,3 14 8 - - ONO 1028,5 10 60
16.01.2017 09:00:00 1,7 -3,3 14 8 - - ONO 1027,8 10 0
16.01.2017 08:00:00 1,6 -4,0 14 8 - - ONO 1027,2 10 0
16.01.2017 07:00:00 1,8 -3,4 18 10 - - ONO 1026,6 10 0
16.01.2017 06:00:00 1,8 -1,8 18 10 - - ONO 1026,0 10 0
16.01.2017 05:00:00 1,6 -1,6 18 10 - - ONO 1025,3 10 0
16.01.2017 04:00:00 1,5 -2,8 18 10 - - NO 1025,1 10 0
16.01.2017 03:00:00 1,6 -2,2 22 12 - - NO 1024,7 10 0
16.01.2017 02:00:00 1,7 -2,2 25 14 - - NO 1024,0 10 0
16.01.2017 01:00:00 2,7 -1,1 22 12 - - NO 1023,9 10 0
16.01.2017 00:00:00 2,8 -3,3 18 10 - - NNO 1023,7 10 0
15.01.2017 23:00:00 2,9 -2,6 22 12 - - ONO 1023,1 10 0
15.01.2017 22:00:00 3,3 -1,1 25 14 - - ONO 1022,5 10 0
15.01.2017 21:00:00 3,8 -0,6 18 10 - - N 1022,2 10 0
15.01.2017 20:00:00 3,8 -0,1 14 8 - - NNW 1021,4 10 0
15.01.2017 19:00:00 3,3 1,0 25 14 - - NNW 1021,1 10 0
15.01.2017 18:00:00 3,6 0,8 29 16 - - NNW 1020,5 10 0
15.01.2017 17:00:00 3,7 -0,6 11 6 - - NNW 1019,8 10 0
15.01.2017 16:00:00 3,0 0,6 22 12 - - NNO 1019,4 10 12
15.01.2017 15:00:00 3,0 0,2 11 6 - - NO 1019,0 8 6
15.01.2017 14:00:00 3,2 -1,0 4 2 50 27 ZO 1018,4 2,6 24
15.01.2017 13:00:00 4,5 -3,2 11 6 - - N 1018,0 2,8 60
15.01.2017 12:00:00 4,5 -3,6 18 10 - - N 1017,9 10 60
15.01.2017 11:00:00 4,5 -3,5 22 12 - - N 1017,7 10 48

tt = temperatuur
td = dauwpunt
ff = windsnelheid
fx = windstoten
dd = windrichting
ppp = luchtdruk
vv = zicht
sd = Zonneschijnduur

Weerstations in de omgeving